This is the latest recevied weather packets stored in our database for station/object VU2EXP-13. If no packets are shown the sender has not sent any weather packets the latest 10 day(s).
| Time | Temp. | Humidity | Pressure | Rain* | Wind** | Luminosity | Snow |
|---|---|---|---|---|---|---|---|
| 1788179430 | 31.67° C | 51% | 989.5 hPa | - | - | - | - |
| 1788178530 | 32.22° C | 51% | 989.5 hPa | - | - | - | - |
| 1788177630 | 32.22° C | 50% | 989.5 hPa | - | - | - | - |
| 1788176730 | 32.78° C | 49% | 989.4 hPa | - | - | - | - |
| 1788175830 | 33.33° C | 49% | 989.2 hPa | - | - | - | - |
| 1788174930 | 32.78° C | 49% | 989.2 hPa | - | - | - | - |
| 1788174030 | 33.33° C | 49% | 989.2 hPa | - | - | - | - |
| 1788173130 | 33.89° C | 46% | 989.1 hPa | - | - | - | - |
| 1788172230 | 35.56° C | 43% | 989.4 hPa | - | - | - | - |
| 1788171330 | 33.89° C | 45% | 989.5 hPa | - | - | - | - |
| 1788170430 | 34.44° C | 45% | 989.5 hPa | - | - | - | - |
| 1788169530 | 35° C | 45% | 989.7 hPa | - | - | - | - |
| 1788168629 | 33.33° C | 47% | 989.9 hPa | - | - | - | - |
| 1788167729 | 34.44° C | 44% | 990.1 hPa | - | - | - | - |
| 1788166829 | 33.89° C | 46% | 990.2 hPa | - | - | - | - |
| 1788165929 | 32.78° C | 49% | 990.5 hPa | - | - | - | - |
| 1788165038 | 33.33° C | 47% | 990.7 hPa | - | - | - | - |
| 1788164128 | 32.78° C | 48% | 990.9 hPa | - | - | - | - |
| 1788163228 | 33.33° C | 46% | 991 hPa | - | - | - | - |
| 1788162329 | 35° C | 44% | 991.1 hPa | - | - | - | - |
| 1788161428 | 33.89° C | 48% | 991.4 hPa | - | - | - | - |
| 1788160528 | 32.22° C | 51% | 991.7 hPa | - | - | - | - |
| 1788159628 | 32.22° C | 51% | 991.9 hPa | - | - | - | - |
| 1788158728 | 32.22° C | 51% | 991.9 hPa | - | - | - | - |
| 1788157828 | 32.22° C | 54% | 992 hPa | - | - | - | - |
* Rain since midnight (hover to see other rain measurements)
** Current wind speed in m/s (hover to see current wind gust speed)